This is the latest recevied weather packets stored in our database for station/object OK2JV-13. If no packets are shown the sender has not sent any weather packets the latest 10 day(s).
| Time | Temp. | Humidity | Pressure | Rain* | Wind** | Luminosity | Snow |
|---|---|---|---|---|---|---|---|
| 1788078565 | 22.78° C | 47% | 1015.1 hPa | - | - | - | - |
| 1788077960 | 22.78° C | 45% | 1015.1 hPa | - | - | - | - |
| 1788077357 | 22.22° C | 52% | 1015.1 hPa | - | - | - | - |
| 1788076753 | 21.67° C | 53% | 1015.1 hPa | - | - | - | - |
| 1788076149 | 21.11° C | 53% | 1015.1 hPa | - | - | - | - |
| 1788075545 | 20.56° C | 56% | 1015 hPa | - | - | - | - |
| 1788074941 | 19.44° C | 59% | 1015 hPa | - | - | - | - |
| 1788074338 | 18.89° C | 60% | 1015 hPa | - | - | - | - |
| 1788073733 | 18.89° C | 60% | 1014.8 hPa | - | - | - | - |
| 1788073129 | 18.33° C | 60% | 1014.8 hPa | - | - | - | - |
| 1788072526 | 18.33° C | 62% | 1014.6 hPa | - | - | - | - |
| 1788071922 | 17.78° C | 64% | 1014.5 hPa | - | - | - | - |
| 1788071318 | 17.22° C | 69% | 1014.6 hPa | - | - | - | - |
| 1788070714 | 16.67° C | 70% | 1014.7 hPa | - | - | - | - |
| 1788070110 | 16.67° C | 71% | 1014.7 hPa | - | - | - | - |
| 1788069506 | 16.11° C | 70% | 1014.5 hPa | - | - | - | - |
| 1788068902 | 16.11° C | 70% | 1014.5 hPa | - | - | - | - |
| 1788068299 | 16.11° C | 70% | 1014.3 hPa | - | - | - | - |
| 1788067695 | 16.11° C | 70% | 1014.5 hPa | - | - | - | - |
| 1788067090 | 15.56° C | 70% | 1014.4 hPa | - | - | - | - |
| 1788066486 | 15.56° C | 70% | 1014.4 hPa | - | - | - | - |
| 1788065883 | 15.56° C | 69% | 1014.4 hPa | - | - | - | - |
| 1788064675 | 15.56° C | 69% | 1014.2 hPa | - | - | - | - |
| 1788064071 | 15.56° C | 69% | 1014.2 hPa | - | - | - | - |
| 1788063464 | 15.56° C | 69% | 1014.4 hPa | - | - | - | - |
* Rain since midnight (hover to see other rain measurements)
** Current wind speed in m/s (hover to see current wind gust speed)